Simultaneous Nadir Overpasses (SNOs) Predictions

Prediction of SNOs between GOES-14 and AQUA Satellite Orbit:

Table of predicted SNOs for the next 14.0 days since TLE Epoch: 9/10/2022
Index Date Time (GOES-14) GOES-14 Lat,Lon AQUA Lat,Lon Distance(km) Time Diff (sec)
1 09/11/2022 20:31:34 -0.38,-104.53 0.09,-102.47 235.64 80
2 09/12/2022 08:52:40 0.36,-104.44 1.04,-107.58 357.35 80
3 09/14/2022 08:39:58 0.36,-104.43 0.36,-104.49 7.13 80
4 09/16/2022 08:24:35 0.37,-104.42 -0.28,-101.39 343.71 80
5 09/16/2022 20:45:51 -0.35,-104.49 -0.81,-106.55 234.77 80
6 09/18/2022 20:35:48 -0.35,-104.48 -0.15,-103.46 116.41 80
7 09/19/2022 08:56:56 0.32,-104.44 1.21,-108.58 470.97 80
8 09/20/2022 20:23:05 -0.34,-104.48 0.53,-100.36 467.93 80
9 09/21/2022 08:44:13 0.32,-104.43 0.53,-105.49 120.35 80
10 09/23/2022 08:28:49 0.32,-104.42 -0.10,-102.39 230.47 80
11 09/23/2022 20:50:05 -0.30,-104.44 -0.97,-107.55 353.74 80
